Regional Weather Roundup
Issued by NWS Sterling, VA

Home | Current Version | Previous Version | Graphics & Text | Print | Product List | Glossary On
Versions: 1 2 3 4 5 6 7 8 9 10 11 12 13 14 15 16 17 18 19 20 21 22 23 24 25 26 27
000
ASUS41 KLWX 051710
RWRLWX

REGIONAL WEATHER ROUNDUP
NATIONAL WEATHER SERVICE BALTIMORE MD/WASHINGTON DC
1200 PM EST MON DEC 05 2016

Note: "FAIR" indicates few or no clouds below 12,000 feet
with no significant weather and/or obstructions to visibility.
 TC=TEMPERATURE CELSIUS

 * =Non NWS site. Station does not report precipitation (e.g. rain,
    snow, etc.), thunder, or fog.

DCZ001-MDZ009-015-VAZ040>042-051-053>054-051800-
WASHINGTON METRO

CITY           SKY/WX    TMP DP  RH WIND       PRES   REMARKS
WASHINGTON NAT MOSUNNY   53  43  68 NW10G16   30.03F
DULLES         MOSUNNY   51  41  68 N8        30.02F
ANDREWS AFB    SUNNY     51  41  69 NW12      30.00F
FT BELVOIR     SUNNY     53  40  61 W3        30.02F
QUANTICO       MOSUNNY   44  41  89 S6        30.05S
COLLEGE PARK*  MOSUNNY   52  39  62 NW10      30.01S
LEESBURG*      MOSUNNY   52  45  76 CALM      30.02F
MANASSAS*      MOSUNNY   46  43  87 CALM      30.03F
GAITHERSBURG*  MOSUNNY   52  37  58 NW10G17   30.05S

$$

MDZ006>007-011-014-051800-
BALTIMORE METRO

CITY           SKY/WX    TMP DP  RH WIND       PRES   REMARKS
BWI AIRPORT    MOSUNNY   53  40  61 NW9G23    30.00F
MD SCIENCE CTR   N/A     52  38  58 MISG      30.02F
MARTIN STATE   MOSUNNY   54  46  76 W9        30.02F
ANNAPOLIS      SUNNY     50  42  74 N6        30.01F
FORT MEADE*    SUNNY     54  41  62 NW9G17    30.03S

$$

MDZ012-015-019>023-051800-
MARYLAND EASTERN SHORE

CITY           SKY/WX    TMP DP  RH WIND       PRES   REMARKS
OCEAN CITY     CLOUDY    47  44  90 N13       30.01S
SALISBURY      CLOUDY    50  44  80 NW8       30.01S
BAY BRIDGE AP* SUNNY     48  43  81 NW7       30.01F
CAMBRIDGE*     CLOUDY    45  41  87 W7        30.01F
EASTON*        PTSUNNY   48  41  76 NW5       30.05F

$$

MDZ017>025-051800-
SOUTHERN MARYLAND

CITY           SKY/WX    TMP DP  RH WIND       PRES   REMARKS
PATUXENT RIVER MOSUNNY   48  41  76 N10       30.02F
ST INIGOES     SUNNY     52  44  74 VRB5      30.01F
LEONARDTOWN*   SUNNY     50  41  71 CALM      30.03F

$$

MDZ003>005-051800-
NORTH CENTRAL MARYLAND

CITY           SKY/WX    TMP DP  RH WIND       PRES   REMARKS
FREDERICK*     MOSUNNY   48  43  81 CALM      30.04F
HAGERSTOWN APT CLOUDY    51  38  60 W10       29.99F
WESTMINSTER*   SUNNY     46  39  76 NW7       29.99F

$$

MDZ501>502-051800-
WESTERN MARYLAND

CITY           SKY/WX    TMP DP  RH WIND       PRES   REMARKS
OAKLAND*       PTSUNNY   37  32  81 W9G18     29.99S
CUMBERLAND*    NOT AVBL

$$

VAZ025>031-051800-
SHENANDOAH VALLEY

CITY           SKY/WX    TMP DP  RH WIND       PRES   REMARKS
WINCHESTER*    SUNNY     50  34  53 NW12      30.00F
FRONT ROYAL*   FAIR      52  36  54 NW7       30.00S
LURAY*         FAIR      54  39  58 NW3       30.01S
NEW MARKET*    PTSUNNY   53  36  53 E5        30.00S
STAUNTON*      MOSUNNY   52  35  52 N6        30.03S
WAYNESBORO*    FAIR      52  35  52 NW7       30.01S

$$

WVZ021-048>050-054>055-051800-
EASTERN WEST VIRGINIA PANHANDLE

CITY           SKY/WX    TMP DP  RH WIND       PRES   REMARKS
MARTINSBURG    PTSUNNY   50  35  56 NW10G18   30.01S
PETERSBURG*    SUNNY     53  35  50 W10       30.03S

$$

VAZ036>039-050-051800-
CENTRAL FOOTHILLS

CITY           SKY/WX    TMP DP  RH WIND       PRES   REMARKS
CHARLOTTESVILL MOSUNNY   50  43  77 CALM      30.02F
CULPEPER*      PTSUNNY   46  42  88 CALM      30.04F
ORANGE*          N/A     45  43  93 CALM      30.04F
GORDONSVILLE*  FAIR      48  43  84 CALM      30.02F
WARRENTON*     FAIR      47  38  73 CALM      30.03S

$$

VAZ055>057-051800-
NORTH AND CENTRAL PIEDMONT

CITY           SKY/WX    TMP DP  RH WIND       PRES   REMARKS
FREDERICKSBRG* MOSUNNY   46  44  93 N3        30.03F
STAFFORD*      CLOUDY    44  42  94 N3        30.08S

$$

NCZ024-NYZ072-PAZ021-071-VAZ022-071-051800-
OTHER REGIONAL OBSERVATIONS

CITY           SKY/WX    TMP DP  RH WIND       PRES   REMARKS
NEW YORK CITY  SUNNY     45  37  73 NW10G18   29.98F
PHILADELPHIA   MOSUNNY   46  40  79 W8        30.00F
PITTSBURGH     PTSUNNY   41  30  65 NW10      30.07F
ROANOKE        SUNNY     55  38  52 NW13      30.03F
RICHMOND       CLOUDY    46  41  82 N8        30.03S
RALEIGH        MOSUNNY   55  46  71 NE5       30.03F

$$

ANZ530>537-051800-
MARINE OBSERVATIONS

STATION/POSITION TIME  TEMP    WIND        PRES
                       AIR SEA DIR/SP/G
                 (UTC) (F)     (DEG/KT/KT) (MB)
THOMAS PT LIGHT  1700   47 49  310/  4/  5   N/A
BALT KEY BRIDGE  1648   49     290/  5/  6 1016.1F
COVE POINT       1648   44      10/  6/  9 1017.1F
LEWISETTA        1648   46 48  300/  7/ 10 1016.4F
SOLOMONS ISLAND  1648   45 51  340/  7/ 10   N/A
PINEY POINT      1648          310/ 10/ 11   N/A

$$





USA.gov is the U.S. government's official web portal to all federal, state and local government web resources and services.